GW1883 Weather Reports


time (UTC)temp
C
wind
direction
speed
KPH
gust
KPH
rain 1hr
cm
rain 24hr
cm
rain mn
cm
humidity
%
barometer
mb
20260503204005 20 5 3.2 12.9 0.00 0.00 0.00 53 1017.3
20260503203904 20 5 4.8 12.9 0.00 0.00 0.00 52 1017.4
20260503203703 20 54 3.2 12.9 0.00 0.00 0.00 52 1017.3
20260503203604 20 26 6.4 12.9 0.00 0.00 0.00 52 1017.4
20260503203505 20 92 4.8 12.9 0.00 0.00 0.00 53 1017.4
20260503203404 20 94 1.6 4.8 0.00 0.00 0.00 53 1017.4
20260503203304 20 69 0.0 4.8 0.00 0.00 0.00 53 1017.4
20260503203204 20 227 0.0 4.8 0.00 0.00 0.00 52 1017.5
20260503203103 20 67 1.6 6.4 0.00 0.00 0.00 53 1017.4
20260503203006 20 335 1.6 6.4 0.00 0.00 0.00 54 1017.5
20260503202905 20 14 1.6 6.4 0.00 0.00 0.00 56 1017.6
20260503202804 20 333 1.6 6.4 0.00 0.00 0.00 55 1017.5
20260503202703 20 275 3.2 6.4 0.00 0.00 0.00 53 1017.6
20260503202607 20 350 3.2 6.4 0.00 0.00 0.00 52 1017.5
20260503202505 20 11 3.2 6.4 0.00 0.00 0.00 52 1017.5
20260503202304 20 78 3.2 6.4 0.00 0.00 0.00 51 1017.6
20260503202205 20 355 3.2 6.4 0.00 0.00 0.00 51 1017.5
20260503202103 20 78 3.2 6.4 0.00 0.00 0.00 51 1017.5
20260503202005 20 13 3.2 6.4 0.00 0.00 0.00 51 1017.5
20260503201902 20 349 1.6 6.4 0.00 0.00 0.00 52 1017.5
20260503201803 20 360 1.6 8.0 0.00 0.00 0.00 53 1017.5
20260503201603 20 101 3.2 8.0 0.00 0.00 0.00 52 1017.6
20260503201505 20 77 1.6 8.0 0.00 0.00 0.00 53 1017.5
20260503201305 20 9 1.6 8.0 0.00 0.00 0.00 52 1017.6
20260503201204 20 333 1.6 8.0 0.00 0.00 0.00 52 1017.6
20260503201103 20 109 3.2 8.0 0.00 0.00 0.00 51 1017.6
20260503201009 20 103 3.2 8.0 0.00 0.00 0.00 51 1017.7
20260503200903 20 38 3.2 8.0 0.00 0.00 0.00 50 1017.6
20260503200803 20 28 1.6 8.0 0.00 0.00 0.00 51 1017.7
20260503200704 20 248 1.6 8.0 0.00 0.00 0.00 52 1017.7
20260503200603 20 346 3.2 8.0 0.00 0.00 0.00 51 1017.7
20260503200505 20 338 3.2 8.0 0.00 0.00 0.00 51 1017.6
20260503200403 20 355 3.2 11.3 0.00 0.00 0.00 52 1017.7
20260503200302 20 332 3.2 11.3 0.00 0.00 0.00 52 1017.7
20260503200203 20 5 3.2 11.3 0.00 0.00 0.00 50 1017.7
20260503200007 20 5 3.2 11.3 0.00 0.00 0.00 53 1017.7
20260503195803 20 32 3.2 11.3 0.00 0.05 0.00 52 1017.7
20260503195702 20 50 3.2 11.3 0.00 0.05 0.00 52 1017.7
20260503195603 20 5 4.8 11.3 0.00 0.05 0.00 51 1017.7
20260503195506 20 52 3.2 9.7 0.00 0.05 0.00 51 1017.7
20260503195403 20 336 4.8 9.7 0.00 0.05 0.00 53 1017.7
20260503195305 20 98 3.2 9.7 0.00 0.05 0.00 52 1017.8
20260503195203 20 12 1.6 9.7 0.00 0.05 0.00 53 1017.8
20260503195103 20 53 1.6 9.7 0.00 0.05 0.00 51 1017.8
20260503195006 20 248 3.2 9.7 0.00 0.05 0.00 51 1017.8
20260503194906 20 271 4.8 9.7 0.00 0.05 0.00 51 1017.8
20260503194804 20 355 4.8 9.7 0.00 0.05 0.00 51 1017.9
20260503194704 20 350 4.8 9.7 0.00 0.05 0.00 51 1017.9
20260503194603 20 348 3.2 9.7 0.00 0.05 0.00 51 1017.9
20260503194506 20 29 3.2 9.7 0.00 0.05 0.00 51 1017.9
20260503194403 20 14 3.2 9.7 0.00 0.05 0.00 51 1017.9
20260503194303 20 5 3.2 9.7 0.00 0.05 0.00 50 1018.0
20260503194203 20 69 4.8 9.7 0.00 0.05 0.00 50 1018.0
20260503194103 20 34 6.4 9.7 0.00 0.05 0.00 49 1017.9
20260503194005 20 17 6.4 9.7 0.00 0.05 0.00 50 1018.0
20260503193903 20 360 4.8 8.0 0.00 0.05 0.00 52 1018.0
20260503193803 20 350 3.2 8.0 0.00 0.05 0.00 51 1018.1
20260503193703 20 349 3.2 12.9 0.00 0.05 0.00 51 1018.0
20260503193604 20 350 4.8 12.9 0.00 0.05 0.00 52 1018.1
20260503193504 20 343 3.2 12.9 0.00 0.05 0.00 51 1018.1
20260503193404 20 15 3.2 12.9 0.00 0.05 0.00 51 1018.1
20260503193304 20 335 1.6 12.9 0.00 0.05 0.00 53 1018.0
20260503193203 20 336 1.6 12.9 0.00 0.05 0.00 52 1018.0
20260503193103 20 351 3.2 12.9 0.00 0.05 0.00 52 1018.1
20260503193005 20 355 4.8 12.9 0.00 0.05 0.00 51 1018.2
20260503192904 20 355 4.8 12.9 0.00 0.05 0.00 52 1018.1
20260503192803 20 350 4.8 9.7 0.00 0.05 0.00 50 1018.1
20260503192705 20 22 4.8 9.7 0.00 0.05 0.00 51 1018.2
20260503192603 20 355 4.8 9.7 0.00 0.05 0.00 51 1018.2
20260503192506 20 10 6.4 9.7 0.00 0.05 0.00 50 1018.2
20260503192403 20 360 6.4 9.7 0.00 0.05 0.00 53 1018.3
20260503192305 20 346 4.8 9.7 0.00 0.05 0.00 51 1018.3
20260503192204 20 33 3.2 9.7 0.00 0.05 0.00 51 1018.3
20260503191903 20 59 3.2 8.0 0.00 0.05 0.00 50 1018.5
20260503191803 20 323 3.2 8.0 0.00 0.05 0.00 52 1018.4
20260503191703 20 5 3.2 8.0 0.00 0.05 0.00 51 1018.5
20260503191604 20 355 3.2 8.0 0.00 0.05 0.00 52 1018.6
20260503191505 20 329 3.2 8.0 0.00 0.05 0.00 51 1018.5
20260503191203 19 15 3.2 9.7 0.00 0.05 0.00 52 1018.6
20260503191105 19 22 1.6 12.9 0.00 0.05 0.00 52 1018.6
20260503191005 19 13 1.6 12.9 0.00 0.05 0.00 51 1018.5
20260503190905 19 47 4.8 12.9 0.00 0.05 0.00 50 1018.6
20260503190803 19 71 4.8 12.9 0.00 0.05 0.00 50 1018.6
20260503190704 19 346 4.8 12.9 0.00 0.05 0.00 50 1018.6
20260503190604 20 5 4.8 12.9 0.00 0.05 0.00 49 1018.6
20260503190505 20 5 6.4 12.9 0.00 0.05 0.00 49 1018.6
20260503190303 20 355 4.8 12.9 0.00 0.05 0.00 52 1018.6
20260503190203 20 350 4.8 12.9 0.00 0.05 0.00 50 1018.6
20260503190104 20 36 4.8 12.9 0.00 0.05 0.00 51 1018.6
20260503190007 20 326 4.8 12.9 0.00 0.05 0.00 51 1018.6
20260503185903 20 13 6.4 12.9 0.00 0.05 0.00 49 1018.6
20260503185803 20 5 4.8 12.9 0.00 0.05 0.00 51 1018.6
20260503185704 20 29 3.2 9.7 0.00 0.05 0.00 50 1018.6
20260503185603 20 360 3.2 9.7 0.00 0.05 0.00 50 1018.7
20260503185505 20 340 3.2 9.7 0.00 0.05 0.00 51 1018.7
20260503185404 20 240 4.8 9.7 0.00 0.05 0.00 52 1018.8
20260503185305 20 316 6.4 9.7 0.00 0.05 0.00 50 1018.8
20260503185203 20 5 6.4 9.7 0.00 0.05 0.00 52 1018.8
20260503185103 20 355 4.8 9.7 0.00 0.05 0.00 49 1018.9
20260503185005 20 13 4.8 9.7 0.00 0.05 0.00 48 1018.9
20260503184903 20 9 4.8 8.0 0.00 0.05 0.00 50 1018.9
20260503184803 20 24 3.2 8.0 0.00 0.05 0.00 53 1019.0
20260503184704 20 49 1.6 8.0 0.00 0.05 0.00 55 1018.9
20260503184603 20 311 1.6 8.0 0.00 0.05 0.00 53 1019.0
20260503184506 20 227 1.6 8.0 0.00 0.05 0.00 51 1019.0
20260503184405 20 325 3.2 8.0 0.00 0.05 0.00 53 1019.0
20260503184303 20 360 4.8 8.0 0.00 0.05 0.00 50 1019.0
20260503184204 20 355 4.8 8.0 0.00 0.05 0.00 52 1019.1
20260503184104 20 23 4.8 8.0 0.00 0.05 0.00 50 1019.1
20260503184006 20 5 3.2 8.0 0.00 0.05 0.00 52 1019.0
20260503183904 20 12 4.8 8.0 0.00 0.05 0.00 51 1019.1
20260503183803 20 12 4.8 14.5 0.00 0.05 0.00 51 1019.1
20260503183603 20 348 1.6 14.5 0.00 0.05 0.00 51 1019.2
20260503183507 20 298 1.6 14.5 0.00 0.05 0.00 51 1019.1
20260503183403 20 178 1.6 14.5 0.00 0.05 0.00 51 1019.1
20260503183303 20 235 3.2 14.5 0.00 0.05 0.00 49 1019.3
20260503183203 20 336 4.8 14.5 0.00 0.05 0.00 51 1019.3
20260503182904 20 360 3.2 8.0 0.00 0.05 0.00 56 1019.2
20260503182803 20 310 3.2 8.0 0.00 0.05 0.00 54 1019.2
20260503182703 20 193 3.2 8.0 0.00 0.05 0.00 51 1019.2
20260503182404 19 12 3.2 8.0 0.00 0.05 0.00 48 1019.4
20260503182305 19 19 4.8 8.0 0.00 0.05 0.00 48 1019.3
20260503182203 19 54 4.8 8.0 0.00 0.05 0.00 48 1019.4
20260503182102 19 348 3.2 8.0 0.00 0.05 0.00 53 1019.3
20260503182006 19 5 3.2 9.7 0.00 0.05 0.00 51 1019.4
20260503181903 19 324 3.2 12.9 0.00 0.05 0.00 52 1019.4
20260503181803 19 31 3.2 12.9 0.00 0.05 0.00 54 1019.4
20260503181703 19 320 3.2 12.9 0.00 0.05 0.00 50 1019.4
20260503181603 19 323 4.8 12.9 0.00 0.05 0.00 50 1019.4
20260503181506 19 344 4.8 12.9 0.00 0.05 0.00 51 1019.5
20260503181303 19 341 3.2 12.9 0.00 0.05 0.00 51 1019.6
20260503181204 19 311 6.4 12.9 0.00 0.05 0.00 49 1019.4
20260503181103 19 312 6.4 12.9 0.00 0.05 0.00 48 1019.5
20260503181005 19 5 4.8 12.9 0.00 0.05 0.00 49 1019.5
20260503180802 19 32 4.8 12.9 0.00 0.05 0.00 50 1019.5
20260503180703 19 12 3.2 12.9 0.00 0.05 0.00 52 1019.6
20260503180604 19 346 3.2 12.9 0.00 0.05 0.00 53 1019.6
20260503180505 19 26 3.2 12.9 0.00 0.05 0.00 53 1019.6
20260503180303 19 5 6.4 12.9 0.00 0.05 0.00 53 1019.6
20260503180204 19 27 8.0 12.9 0.00 0.05 0.00 49 1019.6
20260503180007 20 360 4.8 9.7 0.00 0.05 0.00 51 1019.6
20260503175903 20 5 3.2 9.7 0.00 0.20 0.00 54 1019.6
20260503175803 20 351 4.8 9.7 0.00 0.20 0.00 51 1019.5
20260503175704 20 342 3.2 9.7 0.00 0.20 0.00 53 1019.6
20260503175603 20 343 1.6 6.4 0.00 0.20 0.00 58 1019.6
20260503175505 19 338 1.6 6.4 0.00 0.20 0.00 53 1019.5
20260503175403 19 190 1.6 8.0 0.00 0.20 0.00 51 1019.7
20260503175304 19 38 3.2 8.0 0.00 0.20 0.00 50 1019.6
20260503175202 19 61 3.2 8.0 0.00 0.20 0.00 56 1019.7
20260503175102 19 360 3.2 8.0 0.00 0.20 0.00 53 1019.7
20260503175005 19 5 3.2 8.0 0.00 0.20 0.00 52 1019.7
20260503174903 19 290 3.2 8.0 0.00 0.20 0.00 52 1019.7
20260503174804 19 244 3.2 8.0 0.00 0.20 0.00 50 1019.7
20260503174703 19 344 4.8 8.0 0.00 0.20 0.00 50 1019.7
20260503174603 19 360 4.8 8.0 0.00 0.20 0.00 51 1019.6
20260503174506 19 23 4.8 8.0 0.00 0.20 0.00 48 1019.7
20260503174403 19 350 4.8 8.0 0.00 0.20 0.00 48 1019.7
20260503174304 19 34 1.6 6.4 0.00 0.20 0.00 50 1019.7
20260503174204 20 330 1.6 6.4 0.00 0.20 0.00 52 1019.6
20260503174103 19 350 1.6 6.4 0.00 0.20 0.00 51 1019.7
20260503174006 19 345 1.6 6.4 0.00 0.20 0.00 48 1019.7
20260503173803 19 49 4.8 8.0 0.00 0.20 0.00 52 1019.8
20260503173704 19 16 4.8 9.7 0.00 0.20 0.00 50 1019.6
20260503173603 19 50 3.2 9.7 0.00 0.20 0.00 53 1019.8
20260503173505 19 305 3.2 9.7 0.00 0.20 0.00 53 1019.8
20260503173303 19 344 3.2 9.7 0.00 0.20 0.00 54 1019.8
20260503173203 19 302 1.6 9.7 0.00 0.20 0.00 53 1019.8
20260503173102 19 355 3.2 9.7 0.00 0.20 0.00 52 1019.8
20260503173006 19 355 4.8 9.7 0.00 0.20 0.00 49 1019.7
20260503172903 19 11 6.4 9.7 0.00 0.20 0.00 53 1019.8
20260503172703 19 52 4.8 8.0 0.00 0.20 0.00 50 1019.8
20260503172604 19 44 4.8 8.0 0.00 0.20 0.00 49 1019.9
20260503172506 19 338 4.8 8.0 0.00 0.20 0.00 51 1019.8
20260503172403 20 317 4.8 6.4 0.00 0.20 0.00 51 1019.8
20260503172305 20 347 3.2 6.4 0.00 0.20 0.00 53 1019.8
20260503172203 20 355 3.2 6.4 0.00 0.20 0.00 49 1019.8
20260503172103 20 28 3.2 6.4 0.00 0.20 0.00 48 1019.8
20260503172005 20 24 1.6 6.4 0.00 0.20 0.00 49 1019.8
20260503171903 20 261 1.6 8.0 0.00 0.20 0.00 54 1019.9
20260503171804 20 272 1.6 8.0 0.00 0.20 0.00 52 1019.9
20260503171704 20 329 3.2 8.0 0.00 0.20 0.00 53 1019.9
20260503171603 20 320 3.2 8.0 0.00 0.20 0.00 51 1019.9
20260503171505 20 26 3.2 8.0 0.00 0.20 0.00 56 1019.9
20260503171403 20 341 3.2 8.0 0.00 0.20 0.00 54 1019.9
20260503171303 20 311 3.2 8.0 0.00 0.20 0.00 57 1019.8
20260503171205 19 331 4.8 8.0 0.00 0.20 0.00 55 1019.8
20260503171103 19 341 3.2 8.0 0.00 0.20 0.00 53 1019.8
20260503171005 19 317 3.2 6.4 0.00 0.20 0.00 55 1019.8
20260503170903 19 19 3.2 6.4 0.00 0.20 0.00 52 1019.8
20260503170703 19 350 3.2 6.4 0.00 0.20 0.00 58 1019.9
20260503170603 19 5 1.6 6.4 0.00 0.20 0.00 54 1019.8
20260503170505 18 336 1.6 6.4 0.00 0.20 0.00 55 1019.8
20260503170403 18 306 1.6 6.4 0.00 0.20 0.00 55 1019.8
20260503170302 18 106 1.6 9.7 0.00 0.20 0.00 55 1019.8
20260503170204 18 106 1.6 9.7 0.00 0.20 0.00 57 1019.8
20260503151005 16 75 1.6 9.7 0.00 0.46 0.00 65 1020.5
20260503150904 16 81 3.2 9.7 0.00 0.46 0.00 65 1020.5
20260503150803 16 17 4.8 9.7 0.00 0.46 0.00 66 1020.5
20260503150705 16 355 4.8 9.7 0.00 0.46 0.00 66 1020.5
20260503150603 16 48 4.8 11.3 0.00 0.46 0.00 66 1020.5
20260503150505 16 58 4.8 11.3 0.00 0.46 0.00 65 1020.6
20260503150203 15 360 4.8 11.3 0.00 0.46 0.00 65 1020.6
20260503140304 14 360 6.4 12.9 0.00 0.74 0.00 73 1020.2
20260503140203 14 5 6.4 12.9 0.00 0.74 0.00 74 1020.1
20260503140103 14 42 4.8 12.9 0.00 0.74 0.00 75 1020.1
20260503131204 13 59 3.2 6.4 0.00 1.17 0.00 93 1019.9
20260503131103 13 355 4.8 6.4 0.00 1.17 0.00 95 1019.9
20260503131005 12 5 3.2 6.4 0.00 1.17 0.00 95 1020.0
20260503130904 12 5 1.6 4.8 0.00 1.17 0.00 96 1020.0
20260503130802 12 348 0.0 4.8 0.00 1.17 0.00 97 1020.0
20260503130703 12 65 0.0 3.2 0.00 1.17 0.00 97 1019.9
20260503130604 12 29 0.0 4.8 0.00 1.17 0.00 97 1020.0
20260503130505 12 24 0.0 4.8 0.00 1.17 0.00 97 1020.0
20260503130403 12 360 0.0 4.8 0.00 1.17 0.00 98 1020.0
20260503130304 12 355 0.0 4.8 0.00 1.17 0.00 98 1020.0
20260503130203 12 349 0.0 4.8 0.00 1.17 0.00 98 1020.0
20260503120203 9 139 0.0 0.0 0.00 1.32 0.00 98 1019.6
20260503110802 7 355 0.0 0.0 0.00 1.35 0.00 97 1018.7
20260503110601 7 355 0.0 0.0 0.00 1.35 0.00 97 1018.6
20260503110504 7 355 0.0 0.0 0.00 1.35 0.00 97 1018.6
20260503110402 7 355 0.0 0.0 0.00 1.35 0.00 97 1018.5
20260503110301 7 355 0.0 0.0 0.00 1.35 0.00 97 1018.5
20260503100203 7 9 0.0 0.0 0.00 1.45 0.00 97 1017.8
20260503090505 7 9 0.0 0.0 0.00 1.57 0.00 97 1017.1
20260503090403 7 9 0.0 0.0 0.00 1.57 0.00 97 1017.0
20260503090302 7 9 0.0 0.0 0.00 1.57 0.00 97 1017.0
20260503090203 7 9 0.0 0.0 0.00 1.57 0.00 97 1017.1
20260503081601 8 9 0.0 0.0 0.00 1.65 0.00 96 1016.9
20260503081505 8 9 0.0 0.0 0.00 1.65 0.00 96 1016.9
20260503081405 8 9 0.0 0.0 0.00 1.65 0.00 96 1016.9
20260503081302 8 9 0.0 0.0 0.00 1.65 0.00 96 1016.9
20260503081202 8 9 0.0 0.0 0.00 1.65 0.00 96 1016.8
20260503081101 8 9 0.0 0.0 0.00 1.65 0.00 96 1016.8
20260503081005 8 9 0.0 0.0 0.00 1.65 0.00 96 1016.8
20260503080801 8 9 0.0 0.0 0.00 1.65 0.00 96 1016.8
20260503080701 8 9 0.0 0.0 0.00 1.65 0.00 96 1016.8
20260503080601 8 9 0.0 0.0 0.00 1.65 0.00 96 1016.7
20260503080505 8 9 0.0 0.0 0.00 1.65 0.00 96 1016.7
20260503080402 8 9 0.0 0.0 0.00 1.65 0.00 96 1016.8
20260503080302 8 9 0.0 0.0 0.00 1.65 0.00 96 1016.8
20260503080202 8 9 0.0 0.0 0.00 1.65 0.00 96 1016.8
20260503072902 8 9 0.0 0.0 0.00 1.83 0.00 96 1016.4
20260503072601 8 9 0.0 0.0 0.00 1.83 0.00 96 1016.4
20260503072505 8 9 0.0 0.0 0.00 1.83 0.00 96 1016.3
20260503072403 8 9 0.0 0.0 0.00 1.83 0.00 96 1016.4
20260503072305 8 9 0.0 0.0 0.00 1.83 0.00 96 1016.4
20260503072203 8 9 0.0 0.0 0.00 1.83 0.00 96 1016.3
20260503071903 8 9 0.0 0.0 0.00 1.83 0.00 96 1016.3
20260503071802 8 9 0.0 0.0 0.00 1.83 0.00 96 1016.2
20260503071402 8 9 0.0 0.0 0.00 1.83 0.00 96 1016.3
20260503071301 8 9 0.0 0.0 0.00 1.83 0.00 96 1016.3
20260503071202 8 9 0.0 0.0 0.00 1.83 0.00 96 1016.3
20260503071101 8 9 0.0 0.0 0.00 1.83 0.00 96 1016.3
20260503071005 8 9 0.0 0.0 0.00 1.83 0.00 96 1016.2
20260503070901 8 9 0.0 0.0 0.00 1.83 0.00 96 1016.3
20260503070802 8 9 0.0 0.0 0.00 1.83 0.00 96 1016.3
20260503070701 8 9 0.0 0.0 0.00 1.83 0.00 96 1016.3
20260503070602 8 9 0.0 0.0 0.00 1.83 0.00 96 1016.3
20260503070505 8 9 0.0 0.0 0.00 1.83 0.00 96 1016.3
20260503070402 8 9 0.0 0.0 0.00 1.83 0.00 96 1016.4
20260503070303 8 9 0.0 0.0 0.00 1.83 0.00 96 1016.4
20260503070201 8 9 0.0 0.0 0.00 1.83 0.00 96 1016.4
20260503060303 10 9 0.0 0.0 0.00 1.91 0.00 95 1016.1
20260503060202 10 9 0.0 0.0 0.00 1.91 0.00 95 1016.1
20260503060103 10 9 0.0 0.0 0.00 1.91 0.00 95 1016.0
20260503055103 10 9 0.0 0.0 0.00 1.91 0.00 95 1016.1
20260503055005 10 9 0.0 0.0 0.00 1.91 0.00 95 1016.2
20260503054802 10 9 0.0 0.0 0.00 1.91 0.00 95 1016.2
20260503054704 10 9 0.0 0.0 0.00 1.91 0.00 95 1016.2
20260503054602 10 9 0.0 0.0 0.00 1.91 0.00 95 1016.2
20260503054505 10 9 0.0 0.0 0.00 1.91 0.00 95 1016.2
20260503054302 10 9 0.0 0.0 0.00 1.91 0.00 95 1016.3
20260503054202 10 9 0.0 0.0 0.00 1.91 0.00 95 1016.3
20260503054102 10 9 0.0 0.0 0.00 1.91 0.00 95 1016.2
20260503054005 10 9 0.0 0.0 0.00 1.91 0.00 95 1016.2
20260503053603 10 9 0.0 0.0 0.00 1.91 0.00 95 1016.3
20260503053505 10 9 0.0 0.0 0.00 1.91 0.00 95 1016.2
20260503053402 10 9 0.0 0.0 0.00 1.91 0.00 95 1016.2
20260503053303 10 9 0.0 0.0 0.00 1.91 0.00 95 1016.2
20260503053102 10 9 0.0 0.0 0.00 1.91 0.00 95 1016.2
20260503053006 10 9 0.0 0.0 0.00 1.91 0.00 95 1016.2
20260503052902 10 9 0.0 0.0 0.00 1.91 0.00 95 1016.2
20260503052803 10 9 0.0 0.0 0.00 1.91 0.00 95 1016.2
20260503052703 10 9 0.0 0.0 0.00 1.91 0.00 95 1016.2
20260503052603 10 9 0.0 0.0 0.00 1.91 0.00 95 1016.2
20260503052505 10 9 0.0 0.0 0.00 1.91 0.00 95 1016.2
20260503052402 10 9 0.0 0.0 0.00 1.91 0.00 95 1016.1
20260503052305 10 9 0.0 0.0 0.00 1.91 0.00 95 1016.1
20260503052203 10 9 0.0 0.0 0.00 1.91 0.00 95 1016.2
20260503052101 10 9 0.0 0.0 0.00 1.91 0.00 95 1016.1
20260503052005 10 9 0.0 0.0 0.00 1.91 0.00 95 1016.2
20260503051902 10 9 0.0 0.0 0.00 1.91 0.00 95 1016.3
20260503051802 10 9 0.0 0.0 0.00 1.91 0.00 95 1016.3
20260503051703 10 9 0.0 0.0 0.00 1.91 0.00 95 1016.2
20260503051403 10 9 0.0 0.0 0.00 1.91 0.00 95 1016.2
20260503051303 10 9 0.0 0.0 0.00 1.91 0.00 95 1016.2
20260503050903 10 9 0.0 0.0 0.00 1.91 0.00 95 1016.1
20260503050801 10 9 0.0 0.0 0.00 1.91 0.00 95 1016.2
20260503050702 10 9 0.0 0.0 0.00 1.91 0.00 95 1016.2
20260503050601 10 9 0.0 0.0 0.00 1.91 0.00 95 1016.1
20260503050505 10 9 0.0 0.0 0.00 1.91 0.00 95 1016.1
20260503050402 11 9 0.0 0.0 0.00 1.91 0.00 95 1016.1
20260503050202 11 9 0.0 0.0 0.00 1.91 0.00 95 1016.1
20260503050101 11 9 0.0 0.0 0.00 1.91 0.00 95 1016.1
20260503050006 11 9 0.0 0.0 0.00 1.91 0.00 95 1016.1
20260503045902 11 9 0.0 0.0 0.00 1.91 0.00 95 1015.9
20260503045802 11 9 0.0 0.0 0.00 1.91 0.00 95 1015.9
20260503045703 11 9 0.0 0.0 0.00 1.91 0.00 95 1015.9
20260503045402 11 9 0.0 0.0 0.00 1.91 0.00 95 1015.9
20260503045101 11 9 0.0 0.0 0.00 1.91 0.00 95 1015.8
20260503045005 11 9 0.0 0.0 0.00 1.91 0.00 95 1015.9
20260503044802 11 9 0.0 0.0 0.00 1.91 0.00 95 1015.8
20260503044704 11 9 0.0 0.0 0.00 1.91 0.00 95 1015.8
20260503044601 11 9 0.0 0.0 0.00 1.91 0.00 95 1015.8
20260503044505 11 9 0.0 0.0 0.00 1.91 0.00 95 1015.8
20260503044402 11 9 0.0 0.0 0.00 1.91 0.00 95 1015.9
20260503044302 11 9 0.0 0.0 0.00 1.91 0.00 95 1015.8
20260503044101 11 9 0.0 0.0 0.00 1.91 0.00 95 1015.8
20260503044005 11 9 0.0 0.0 0.00 1.91 0.00 95 1015.8
20260503043901 11 9 0.0 0.0 0.00 1.91 0.00 95 1015.7
20260503043801 11 9 0.0 0.0 0.00 1.91 0.00 95 1015.8
20260503043702 11 9 0.0 0.0 0.00 1.91 0.00 95 1015.7
20260503043402 11 9 0.0 0.0 0.00 1.91 0.00 95 1015.7
20260503042902 11 9 0.0 0.0 0.00 1.91 0.00 95 1015.7
20260503042803 11 9 0.0 0.0 0.00 1.91 0.00 95 1015.7
20260503042701 11 9 0.0 0.0 0.00 1.91 0.00 95 1015.7
20260503042601 11 9 0.0 0.0 0.00 1.91 0.00 95 1015.7
20260503042504 11 9 0.0 0.0 0.00 1.91 0.00 95 1015.6
20260503042301 11 9 0.0 0.0 0.00 1.91 0.00 95 1015.6
20260503042203 11 9 0.0 0.0 0.00 1.91 0.00 95 1015.6
20260503042102 11 9 0.0 0.0 0.00 1.91 0.00 94 1015.6
20260503042006 11 9 0.0 0.0 0.00 1.91 0.00 95 1015.6
20260503041902 11 9 0.0 0.0 0.00 1.91 0.00 94 1015.6
20260503041801 11 9 0.0 0.0 0.00 1.91 0.00 94 1015.6
20260503041702 11 9 0.0 0.0 0.00 1.91 0.00 94 1015.6
20260503041401 11 9 0.0 1.6 0.00 1.91 0.00 94 1015.5
20260503041301 11 9 0.0 1.6 0.00 1.91 0.00 94 1015.4
20260503041203 11 9 0.0 1.6 0.00 1.91 0.00 95 1015.5
20260503041102 11 9 0.0 1.6 0.00 1.91 0.00 95 1015.4
20260503041005 11 9 0.0 1.6 0.00 1.91 0.00 94 1015.3
20260503040903 11 9 0.0 1.6 0.00 1.91 0.00 94 1015.3
20260503040803 11 9 0.0 1.6 0.00 1.91 0.00 95 1015.3
20260503040702 11 9 0.0 3.2 0.00 1.91 0.00 95 1015.4
20260503040603 11 9 0.0 3.2 0.00 1.91 0.00 95 1015.4
20260503040505 11 9 0.0 3.2 0.00 1.91 0.00 95 1015.4
20260503040402 11 9 0.0 3.2 0.00 1.91 0.00 94 1015.5
20260503040302 11 9 0.0 3.2 0.00 1.91 0.00 94 1015.5
20260503040204 11 342 1.6 3.2 0.00 1.91 0.00 94 1015.5
20260503040005 11 342 1.6 3.2 0.00 1.91 1.91 95 1015.5
20260503035904 11 342 1.6 3.2 0.00 1.91 1.91 95 1015.6
20260503035804 11 342 0.0 3.2 0.00 1.91 1.91 94 1015.6
20260503035705 11 344 0.0 3.2 0.00 1.91 1.91 94 1015.6
20260503035604 11 349 0.0 0.0 0.00 1.91 1.91 95 1015.5
20260503035506 11 349 0.0 0.0 0.00 1.91 1.91 95 1015.5
20260503035404 11 349 0.0 0.0 0.00 1.91 1.91 95 1015.5
20260503035305 11 349 0.0 0.0 0.00 1.91 1.91 95 1015.5
20260503035204 11 350 0.0 0.0 0.00 1.91 1.91 95 1015.5
20260503035105 11 347 0.0 0.0 0.00 1.91 1.91 95 1015.4
20260503035005 11 347 0.0 0.0 0.00 1.91 1.91 95 1015.4
20260503034903 11 347 0.0 0.0 0.00 1.91 1.91 95 1015.5
20260503034805 11 347 0.0 0.0 0.00 1.91 1.91 95 1015.4
20260503034704 11 347 0.0 0.0 0.00 1.91 1.91 95 1015.5
20260503034604 11 347 0.0 0.0 0.00 1.91 1.91 95 1015.5
20260503034506 11 355 0.0 0.0 0.00 1.91 1.91 95 1015.6
20260503034404 11 355 0.0 0.0 0.00 1.91 1.91 95 1015.5
20260503034304 11 355 0.0 0.0 0.00 1.91 1.91 95 1015.5
20260503034205 11 355 0.0 0.0 0.00 1.91 1.91 95 1015.6
20260503033905 11 355 0.0 0.0 0.00 1.91 1.91 95 1015.5
20260503033804 11 355 0.0 0.0 0.00 1.91 1.91 95 1015.4
20260503033704 11 355 0.0 0.0 0.00 1.91 1.91 95 1015.4
20260503033604 11 355 0.0 0.0 0.00 1.91 1.91 95 1015.3
20260503033507 11 355 0.0 0.0 0.00 1.91 1.91 95 1015.4
20260503033404 11 355 0.0 0.0 0.00 1.91 1.91 96 1015.3
20260503033305 11 355 0.0 0.0 0.00 1.91 1.91 95 1015.3
20260503033204 11 355 0.0 0.0 0.00 1.91 1.91 95 1015.2
20260503033104 11 355 0.0 0.0 0.00 1.91 1.91 95 1015.3
20260503033007 11 355 0.0 0.0 0.00 1.91 1.91 95 1015.2
20260503032904 11 355 0.0 0.0 0.00 1.91 1.91 96 1015.2
20260503032804 11 355 0.0 0.0 0.00 1.91 1.91 96 1015.1
20260503032704 11 355 0.0 0.0 0.00 1.91 1.91 96 1015.1
20260503032605 11 355 0.0 0.0 0.00 1.91 1.91 95 1015.2
20260503032506 11 355 0.0 0.0 0.00 1.91 1.91 95 1015.2
20260503032404 11 355 0.0 0.0 0.00 1.91 1.91 95 1015.2
20260503032305 11 355 0.0 0.0 0.00 1.91 1.91 95 1015.2
20260503032104 11 355 0.0 0.0 0.00 1.91 1.91 95 1015.1
20260503032006 11 355 0.0 0.0 0.00 1.91 1.91 95 1015.1
20260503031905 11 355 0.0 0.0 0.00 1.91 1.91 95 1015.2
20260503031804 11 355 0.0 0.0 0.00 1.91 1.91 95 1015.2
20260503031404 11 355 0.0 0.0 0.00 1.91 1.91 95 1015.2
20260503031304 11 355 0.0 0.0 0.00 1.91 1.91 95 1015.1
20260503031204 11 355 0.0 0.0 0.00 1.91 1.91 95 1015.1
20260503031105 11 355 0.0 0.0 0.00 1.91 1.91 95 1015.0
20260503031006 11 355 0.0 0.0 0.00 1.91 1.91 95 1015.0
20260503030904 11 355 0.0 0.0 0.00 1.91 1.91 95 1015.0
20260503030804 11 355 0.0 0.0 0.00 1.91 1.91 95 1015.0
20260503030704 11 355 0.0 0.0 0.00 1.91 1.91 95 1014.9
20260503030604 11 355 0.0 0.0 0.00 1.91 1.91 95 1014.9
20260503030505 11 355 0.0 0.0 0.00 1.91 1.91 95 1014.8
20260503030405 11 355 0.0 0.0 0.00 1.91 1.91 95 1014.8
20260503030304 11 355 0.0 0.0 0.00 1.91 1.91 95 1014.8
20260503030204 11 355 0.0 0.0 0.00 1.91 1.91 95 1014.8
20260503030104 11 355 0.0 0.0 0.00 1.91 1.91 95 1014.8
20260503030008 11 355 0.0 0.0 0.00 1.91 1.91 95 1014.8
20260503025804 11 355 0.0 0.0 0.00 1.91 1.91 95 1014.7
20260503025705 11 355 0.0 0.0 0.00 1.91 1.91 95 1014.7
20260503025604 11 355 0.0 0.0 0.00 1.91 1.91 95 1014.6
20260503025506 11 355 0.0 0.0 0.00 1.91 1.91 95 1014.6
20260503025404 11 355 0.0 0.0 0.00 1.91 1.91 95 1014.5
20260503025305 11 355 0.0 0.0 0.00 1.91 1.91 95 1014.4
20260503025204 11 355 0.0 0.0 0.00 1.91 1.91 95 1014.5
20260503025105 11 355 0.0 0.0 0.00 1.91 1.91 95 1014.5
20260503025006 11 355 0.0 0.0 0.00 1.91 1.91 95 1014.5
20260503024904 11 355 0.0 0.0 0.00 1.91 1.91 95 1014.5
20260503024805 11 355 0.0 0.0 0.00 1.91 1.91 95 1014.5
20260503024705 11 355 0.0 0.0 0.00 1.91 1.91 95 1014.3
20260503024604 11 355 0.0 0.0 0.00 1.91 1.91 95 1014.4
20260503024506 11 355 0.0 0.0 0.00 1.91 1.91 95 1014.4
20260503024404 11 355 0.0 0.0 0.00 1.91 1.91 95 1014.4
20260503024304 11 355 0.0 1.6 0.00 1.91 1.91 95 1014.4
20260503024204 11 355 0.0 1.6 0.00 1.91 1.91 95 1014.4
20260503024105 11 355 0.0 1.6 0.00 1.91 1.91 95 1014.4
20260503024005 11 355 0.0 3.2 0.00 1.91 1.91 95 1014.3
20260503023805 11 355 0.0 3.2 0.00 1.91 1.91 95 1014.3
20260503023704 11 355 0.0 3.2 0.00 1.91 1.91 95 1014.3
20260503023604 11 355 0.0 3.2 0.00 1.91 1.91 95 1014.2
20260503023505 11 355 0.0 3.2 0.00 1.91 1.91 95 1014.3
20260503023404 11 355 0.0 4.8 0.00 1.91 1.91 95 1014.2
20260503023304 11 355 1.6 4.8 0.00 1.91 1.91 95 1014.1
20260503023203 11 355 1.6 4.8 0.00 1.91 1.91 95 1014.1
20260503023104 11 355 1.6 4.8 0.00 1.91 1.91 95 1014.2
20260503023006 11 355 1.6 4.8 0.00 1.91 1.91 95 1014.2
20260503022704 12 355 1.6 4.8 0.00 1.91 1.91 95 1014.2
20260503022604 12 355 1.6 4.8 0.00 1.91 1.91 95 1014.2
20260503022506 12 355 1.6 4.8 0.00 1.91 1.91 95 1014.1
20260503022204 12 355 1.6 4.8 0.00 1.91 1.91 95 1014.1
20260503022104 12 355 1.6 4.8 0.00 1.91 1.91 95 1014.1
20260503022005 12 355 3.2 4.8 0.00 1.91 1.91 95 1014.1
20260503021903 12 355 1.6 4.8 0.00 1.91 1.91 95 1014.2
20260503021804 12 51 1.6 4.8 0.00 1.91 1.91 95 1014.1
20260503021703 12 355 0.0 0.0 0.00 1.91 1.91 95 1014.1
20260503021605 12 355 0.0 0.0 0.00 1.91 1.91 95 1014.1
20260503021506 12 340 0.0 1.6 0.00 1.91 1.91 95 1014.2
20260503021403 12 335 0.0 1.6 0.00 1.91 1.91 95 1014.1
20260503021304 12 5 0.0 1.6 0.00 1.91 1.91 95 1014.1
20260503021204 12 5 0.0 1.6 0.00 1.91 1.91 95 1014.1
20260503021105 12 5 0.0 1.6 0.00 1.91 1.91 95 1014.1
20260503021005 12 5 0.0 1.6 0.00 1.91 1.91 95 1014.0
20260503020704 12 5 0.0 1.6 0.00 1.91 1.91 95 1014.0
20260503020604 12 5 0.0 3.2 0.00 1.91 1.91 95 1014.0
20260503020506 12 9 0.0 3.2 0.00 1.91 1.91 95 1014.0
20260503020404 12 355 0.0 3.2 0.00 1.91 1.91 95 1014.1
20260503020304 12 355 0.0 3.2 0.00 1.91 1.91 95 1014.0
20260503020204 12 355 0.0 3.2 0.00 1.91 1.91 95 1014.0
20260503020007 12 355 0.0 3.2 0.00 1.91 1.91 95 1014.0
20260503015904 12 355 1.6 3.2 0.00 1.91 1.91 95 1014.0
20260503015805 12 355 1.6 3.2 0.00 1.91 1.91 95 1014.0
20260503015704 12 355 1.6 3.2 0.00 1.91 1.91 95 1014.1
20260503015604 12 355 1.6 3.2 0.00 1.91 1.91 95 1014.0
20260503015506 12 355 1.6 3.2 0.00 1.91 1.91 95 1014.0
20260503015404 12 355 1.6 3.2 0.00 1.91 1.91 95 1013.9
20260503015204 12 355 1.6 3.2 0.00 1.91 1.91 95 1013.9
20260503015103 12 355 1.6 3.2 0.00 1.91 1.91 95 1013.8
20260503015006 12 355 1.6 3.2 0.00 1.91 1.91 95 1013.9
20260503014904 12 355 1.6 3.2 0.00 1.91 1.91 95 1013.9
20260503014805 12 355 1.6 3.2 0.00 1.91 1.91 95 1013.9
20260503014704 12 355 1.6 4.8 0.00 1.91 1.91 95 1013.9
20260503014604 12 355 1.6 4.8 0.00 1.91 1.91 95 1013.9
20260503014505 12 355 1.6 4.8 0.00 1.91 1.91 95 1013.8
20260503014405 12 355 1.6 4.8 0.00 1.91 1.91 95 1013.8
20260503014303 12 355 1.6 4.8 0.00 1.91 1.91 95 1013.8
20260503014203 12 355 1.6 4.8 0.00 1.91 1.91 95 1013.9
20260503014104 12 355 1.6 4.8 0.00 1.91 1.91 95 1013.9
20260503014005 12 355 1.6 4.8 0.00 1.91 1.91 95 1013.8
20260503013903 12 355 1.6 4.8 0.00 1.91 1.91 95 1013.9
20260503013604 12 355 1.6 3.2 0.00 1.91 1.91 95 1013.8
20260503013506 12 355 1.6 3.2 0.00 1.91 1.91 95 1013.8
20260503013405 12 355 1.6 3.2 0.00 1.91 1.91 95 1013.8
20260503013304 12 355 1.6 3.2 0.00 1.91 1.91 95 1013.7
20260503013204 12 355 1.6 1.6 0.00 1.91 1.91 95 1013.8
20260503013105 12 355 1.6 3.2 0.00 1.91 1.91 95 1013.8
20260503013006 12 355 1.6 3.2 0.00 1.91 1.91 95 1013.7
20260503012904 12 355 1.6 3.2 0.00 1.91 1.91 95 1013.7
20260503012804 12 355 0.0 3.2 0.00 1.91 1.91 95 1013.6
20260503012704 12 355 0.0 3.2 0.00 1.91 1.91 95 1013.6
20260503012604 12 355 0.0 3.2 0.00 1.91 1.91 95 1013.6
20260503012506 12 355 0.0 3.2 0.00 1.91 1.91 95 1013.6
20260503012405 12 355 1.6 3.2 0.00 1.91 1.91 95 1013.5
20260503012205 12 355 1.6 3.2 0.00 1.91 1.91 95 1013.4
20260503012104 12 355 1.6 3.2 0.00 1.91 1.91 95 1013.4
20260503012007 12 355 1.6 3.2 0.00 1.91 1.91 95 1013.4
20260503011704 12 355 1.6 3.2 0.00 1.91 1.91 95 1013.4
20260503011506 12 355 0.0 4.8 0.00 1.91 1.91 95 1013.4
20260503011404 12 355 0.0 4.8 0.00 1.91 1.91 94 1013.4
20260503011303 12 355 1.6 4.8 0.00 1.91 1.91 95 1013.4
20260503011204 12 355 1.6 4.8 0.00 1.91 1.91 95 1013.3
20260503011104 12 355 1.6 4.8 0.00 1.91 1.91 94 1013.3
20260503011006 12 355 1.6 4.8 0.00 1.91 1.91 94 1013.4
20260503010904 12 355 1.6 4.8 0.00 1.91 1.91 94 1013.4
20260503010803 12 355 1.6 4.8 0.00 1.91 1.91 94 1013.3
20260503010704 12 360 1.6 4.8 0.00 1.91 1.91 94 1013.4
20260503010604 12 349 1.6 4.8 0.00 1.91 1.91 94 1013.4
20260503010505 12 349 1.6 4.8 0.00 1.91 1.91 94 1013.3
20260503010405 12 350 1.6 4.8 0.00 1.91 1.91 94 1013.3
20260503010305 12 350 1.6 4.8 0.00 1.91 1.91 94 1013.3
20260503010205 12 350 3.2 4.8 0.00 1.91 1.91 94 1013.3
20260503010104 12 355 3.2 4.8 0.00 1.91 1.91 94 1013.2
20260503010006 12 355 1.6 4.8 0.00 1.93 1.91 94 1013.3
20260503005902 12 355 1.6 4.8 0.00 1.93 1.91 94 1013.3
20260503005804 12 5 1.6 4.8 0.00 1.93 1.91 94 1013.3
20260503005704 12 5 1.6 6.4 0.00 1.93 1.91 94 1013.3
20260503005605 12 5 3.2 6.4 0.00 1.93 1.91 94 1013.2
20260503005506 12 5 3.2 6.4 0.00 1.93 1.91 94 1013.3
20260503005404 12 5 3.2 6.4 0.00 1.93 1.91 94 1013.2
20260503005202 12 355 3.2 6.4 0.00 1.93 1.91 94 1013.3
20260503004903 12 355 3.2 6.4 0.00 1.93 1.91 94 1013.2
20260503004803 12 351 3.2 4.8 0.00 1.93 1.91 94 1013.0
20260503004702 12 355 3.2 12.9 0.00 1.93 1.91 95 1013.2
20260503004603 12 355 3.2 12.9 0.00 1.93 1.91 95 1013.1
20260503004506 12 360 3.2 12.9 0.00 1.93 1.91 94 1013.1
20260503004403 12 355 3.2 12.9 0.00 1.93 1.91 95 1013.1
20260503004303 12 5 3.2 12.9 0.00 1.93 1.91 95 1013.2
20260503004203 12 351 3.2 12.9 0.00 1.93 1.91 95 1013.1
20260503004103 12 22 3.2 12.9 0.00 1.93 1.91 95 1013.2
20260503004005 12 24 3.2 12.9 0.00 1.93 1.91 95 1013.2
20260503003903 12 5 4.8 12.9 0.00 1.93 1.91 95 1013.2
20260503003802 12 355 3.2 12.9 0.00 1.93 1.91 95 1013.3
20260503003703 12 16 3.2 4.8 0.00 1.93 1.91 95 1013.2
20260503003603 12 355 1.6 4.8 0.00 1.93 1.91 95 1013.3
20260503003506 12 355 1.6 4.8 0.00 1.93 1.91 95 1013.2
20260503003303 12 355 1.6 4.8 0.00 1.93 1.91 95 1013.2
20260503003202 12 355 3.2 4.8 0.00 1.93 1.91 95 1013.2
20260503003103 12 5 3.2 4.8 0.00 1.93 1.91 95 1013.1
20260503003005 12 5 3.2 4.8 0.00 1.93 1.91 95 1013.2
20260503002903 12 5 3.2 4.8 0.00 1.93 1.91 95 1013.2
20260503002803 12 5 1.6 4.8 0.00 1.93 1.91 95 1013.2
20260503002703 12 9 0.0 4.8 0.00 1.93 1.91 95 1013.1
20260503002603 12 348 0.0 4.8 0.00 1.93 1.91 95 1013.1
20260503002507 12 348 1.6 4.8 0.00 1.93 1.91 95 1013.1
20260503002403 12 348 3.2 4.8 0.00 1.93 1.91 95 1013.1
20260503002305 12 355 3.2 6.4 0.00 1.93 1.91 95 1013.0
20260503002203 12 355 3.2 6.4 0.00 1.93 1.91 95 1013.0
20260503002103 12 360 3.2 6.4 0.00 1.93 1.91 95 1013.0
20260503002006 12 355 3.2 6.4 0.00 1.93 1.91 95 1013.0
20260503001903 12 360 3.2 6.4 0.00 1.93 1.91 95 1013.0
20260503001803 12 5 3.2 6.4 0.00 1.93 1.91 95 1012.9
20260503001603 12 355 3.2 6.4 0.00 1.93 1.91 95 1012.8
20260503001505 12 5 3.2 6.4 0.00 1.93 1.91 95 1012.7
20260503001404 12 360 3.2 6.4 0.00 1.93 1.91 95 1012.7
20260503001303 12 348 3.2 6.4 0.00 1.93 1.91 95 1012.7
20260503001103 12 360 3.2 6.4 0.00 1.93 1.91 95 1012.7
20260503001006 12 351 3.2 6.4 0.00 1.93 1.91 95 1012.7
20260503000903 12 5 1.6 4.8 0.00 1.93 1.91 95 1012.7
20260503000802 12 5 3.2 4.8 0.00 1.93 1.91 95 1012.6
20260503000703 12 5 1.6 4.8 0.00 1.93 1.91 95 1012.6
20260503000603 12 5 1.6 4.8 0.00 1.93 1.91 95 1012.6
20260503000505 12 5 1.6 4.8 0.00 1.93 1.91 95 1012.6
20260503000404 12 5 1.6 4.8 0.00 1.93 1.91 95 1012.7
20260503000303 12 329 1.6 4.8 0.00 1.93 1.91 95 1012.6
20260503000203 12 5 1.6 4.8 0.00 1.93 1.91 95 1012.6
20260502235904 12 360 3.2 4.8 0.00 1.93 1.91 95 1012.6
20260502235804 12 360 3.2 4.8 0.00 1.93 1.91 95 1012.6
20260502235704 12 360 3.2 4.8 0.00 1.93 1.91 95 1012.5
20260502235603 12 360 3.2 4.8 0.00 1.93 1.91 95 1012.5
20260502235506 12 360 3.2 4.8 0.00 1.93 1.91 95 1012.5
20260502235305 12 360 1.6 4.8 0.00 1.93 1.91 95 1012.4
20260502235203 12 10 1.6 3.2 0.00 1.93 1.91 95 1012.4
20260502235103 12 10 1.6 3.2 0.00 1.93 1.91 95 1012.3
20260502235006 12 12 0.0 3.2 0.00 1.93 1.91 95 1012.3
20260502234904 12 5 0.0 6.4 0.00 1.93 1.91 95 1012.2
20260502234804 12 5 0.0 6.4 0.00 1.93 1.91 95 1012.3
20260502234705 12 5 1.6 6.4 0.00 1.93 1.91 95 1012.3
20260502234605 12 5 1.6 6.4 0.00 1.93 1.91 94 1012.3
20260502234505 12 5 3.2 6.4 0.00 1.93 1.91 95 1012.2
20260502234404 12 12 1.6 6.4 0.00 1.93 1.91 94 1012.3
20260502234103 12 38 3.2 6.4 0.00 1.93 1.91 94 1012.2
20260502234006 12 355 3.2 6.4 0.00 1.93 1.91 94 1012.3
20260502233803 12 355 4.8 8.0 0.00 1.93 1.91 95 1012.3
20260502233704 12 355 3.2 9.7 0.00 1.93 1.91 95 1012.2
20260502233604 12 5 3.2 9.7 0.00 1.93 1.91 95 1012.3
20260502233506 12 351 3.2 9.7 0.00 1.93 1.91 95 1012.2
20260502233404 12 355 3.2 9.7 0.00 1.93 1.91 95 1012.2
20260502233304 12 5 4.8 9.7 0.00 1.93 1.91 95 1012.2
20260502233205 12 360 4.8 9.7 0.00 1.93 1.91 95 1012.1
20260502233104 12 5 4.8 9.7 0.00 1.93 1.91 95 1012.1
20260502233006 12 14 4.8 9.7 0.00 1.93 1.91 95 1012.1
20260502232803 12 50 4.8 9.7 0.00 1.93 1.91 95 1012.2
20260502232703 12 355 3.2 8.0 0.00 1.93 1.91 95 1012.2
20260502232404 12 360 3.2 8.0 0.00 1.93 1.91 95 1012.1
20260502232305 12 355 4.8 8.0 0.00 1.93 1.91 95 1012.1
20260502232204 12 360 4.8 8.0 0.00 1.93 1.91 95 1012.2
20260502231904 12 15 4.8 8.0 0.00 1.93 1.91 95 1012.0
20260502231804 12 360 3.2 8.0 0.00 1.93 1.91 95 1012.0
20260502231704 12 9 3.2 8.0 0.00 1.93 1.91 95 1012.1
20260502231505 12 349 3.2 8.0 0.00 1.93 1.91 95 1012.1
20260502231404 12 355 3.2 8.0 0.00 1.93 1.91 95 1012.1
20260502231303 12 355 3.2 8.0 0.00 1.93 1.91 95 1012.1
20260502231104 12 360 3.2 8.0 0.00 1.93 1.91 95 1012.1
20260502231006 12 9 3.2 8.0 0.00 1.93 1.91 95 1011.9
20260502230905 12 355 3.2 9.7 0.00 1.93 1.91 95 1012.0
20260502230803 12 351 3.2 9.7 0.00 1.93 1.91 95 1012.0
20260502230604 12 360 4.8 9.7 0.00 1.93 1.91 95 1012.0
20260502230506 12 355 4.8 9.7 0.00 1.93 1.91 95 1012.0
20260502230405 12 360 3.2 9.7 0.00 1.93 1.91 95 1012.0
20260502230305 12 355 3.2 9.7 0.00 1.93 1.91 95 1012.0
20260502230205 12 28 3.2 9.7 0.00 1.93 1.91 95 1012.0
20260502230104 12 13 3.2 9.7 0.00 1.93 1.91 95 1012.0
20260502230007 12 5 3.2 8.0 0.00 1.93 1.91 95 1012.0
20260502225903 12 25 3.2 8.0 0.00 1.93 1.91 95 1012.1
20260502225803 12 355 1.6 8.0 0.00 1.93 1.91 95 1012.1
20260502225703 12 350 3.2 8.0 0.00 1.93 1.91 95 1012.1
20260502225603 12 346 3.2 8.0 0.00 1.93 1.91 95 1012.2
20260502225504 12 5 3.2 8.0 0.00 1.93 1.91 95 1012.2
20260502225403 12 360 1.6 8.0 0.00 1.93 1.91 95 1012.1
20260502225304 12 48 3.2 8.0 0.00 1.93 1.91 95 1012.1
20260502225203 12 5 4.8 8.0 0.00 1.93 1.91 95 1012.1
20260502225103 12 14 3.2 8.0 0.00 1.93 1.91 95 1012.0
20260502225005 12 337 3.2 6.4 0.00 1.93 1.91 95 1012.1
20260502224903 12 355 3.2 6.4 0.00 1.93 1.91 95 1012.0
20260502224805 12 355 3.2 6.4 0.00 1.93 1.91 95 1012.0
20260502224703 12 5 1.6 6.4 0.00 1.93 1.91 95 1012.0
20260502224603 12 5 1.6 8.0 0.00 1.93 1.91 95 1012.0
20260502224505 12 5 3.2 8.0 0.00 1.93 1.91 95 1012.0
20260502224403 12 5 3.2 8.0 0.00 1.93 1.91 95 1012.0
20260502224304 12 355 3.2 8.0 0.00 1.93 1.91 95 1012.1
20260502224203 12 355 3.2 8.0 0.00 1.93 1.91 95 1012.0
20260502224103 12 5 3.2 8.0 0.00 1.93 1.91 95 1012.0
20260502224005 12 355 3.2 8.0 0.00 1.93 1.91 95 1012.0
20260502223703 12 351 3.2 6.4 0.00 1.93 1.91 95 1012.0
20260502223403 12 5 3.2 8.0 0.00 1.93 1.91 95 1011.9
20260502223303 12 5 3.2 8.0 0.00 1.93 1.91 95 1011.8
20260502223203 12 360 3.2 8.0 0.00 1.93 1.91 95 1011.8
20260502223103 12 5 3.2 8.0 0.00 1.93 1.91 95 1011.8
20260502223006 12 350 3.2 8.0 0.00 1.93 1.91 95 1011.8
20260502222904 12 81 3.2 8.0 0.00 1.93 1.91 95 1011.8
20260502222803 12 19 4.8 8.0 0.00 1.93 1.91 95 1011.8
20260502222704 12 33 4.8 8.0 0.00 1.93 1.91 95 1011.9
20260502222603 12 73 4.8 8.0 0.00 1.93 1.91 95 1011.8
20260502222506 12 25 4.8 8.0 0.00 1.93 1.91 95 1011.9
20260502222403 12 355 3.2 8.0 0.00 1.93 1.91 95 1011.8
20260502222305 12 5 3.2 14.5 0.00 1.93 1.91 95 1011.9
20260502222203 12 343 3.2 14.5 0.00 1.93 1.91 95 1011.9
20260502222104 12 348 3.2 14.5 0.00 1.93 1.91 95 1011.8
20260502222005 12 360 4.8 14.5 0.00 1.93 1.91 95 1011.8
20260502221903 12 33 4.8 14.5 0.00 1.93 1.91 95 1011.7
20260502221803 12 355 4.8 14.5 0.00 1.93 1.91 95 1011.8
20260502221704 12 355 4.8 16.1 0.00 1.93 1.91 95 1011.7
20260502221602 12 355 4.8 16.1 0.00 1.93 1.91 95 1011.7
20260502221506 12 21 6.4 16.1 0.00 1.93 1.91 95 1011.8
20260502221402 12 9 6.4 16.1 0.00 1.93 1.91 95 1011.8
20260502221303 12 43 4.8 16.1 0.00 1.93 1.91 95 1011.9
20260502221204 12 29 4.8 16.1 0.00 1.93 1.91 95 1011.9
20260502221102 12 355 4.8 16.1 0.00 1.93 1.91 95 1011.9
20260502221005 12 348 6.4 16.1 0.00 1.93 1.91 95 1011.9
20260502220902 12 22 6.4 16.1 0.00 1.93 1.91 95 1012.0
20260502220803 12 355 6.4 16.1 0.00 1.93 1.91 95 1011.9
20260502220704 12 346 4.8 9.7 0.00 1.93 1.91 95 1011.9
20260502220603 12 34 3.2 6.4 0.00 1.93 1.91 95 1012.0
20260502220505 12 355 3.2 6.4 0.00 1.93 1.91 95 1011.9
20260502220302 12 360 1.6 6.4 0.00 1.93 1.91 95 1011.9
20260502220204 12 360 3.2 9.7 0.00 1.93 1.91 95 1011.9
20260502215603 12 360 3.2 9.7 0.00 1.93 1.91 95 1011.7
20260502215505 12 355 4.8 9.7 0.00 1.93 1.91 95 1011.7
20260502215403 12 34 4.8 9.7 0.00 1.93 1.91 95 1011.6
20260502215305 12 13 6.4 9.7 0.00 1.93 1.91 95 1011.7
20260502215202 12 360 4.8 9.7 0.00 1.93 1.91 95 1011.7
20260502215102 12 5 4.8 12.9 0.00 1.93 1.91 95 1011.6
20260502215005 12 344 4.8 12.9 0.00 1.93 1.91 95 1011.6
20260502214903 12 15 6.4 12.9 0.00 1.93 1.91 95 1011.6
20260502214802 12 5 4.8 12.9 0.00 1.93 1.91 95 1011.7
20260502214702 12 351 4.8 14.5 0.00 1.93 1.91 95 1011.7
20260502214403 12 5 6.4 14.5 0.00 1.93 1.91 95 1011.7
20260502214303 12 11 6.4 14.5 0.00 1.93 1.91 95 1011.6
20260502214203 12 348 6.4 14.5 0.00 1.93 1.91 95 1011.7
20260502214103 12 360 6.4 14.5 0.00 1.93 1.91 95 1011.6
20260502214005 12 5 8.0 14.5 0.00 1.93 1.91 95 1011.6
20260502213903 12 346 6.4 14.5 0.00 1.93 1.91 96 1011.6
20260502213803 13 355 4.8 8.0 0.00 1.93 1.91 96 1011.5
20260502213702 13 355 3.2 6.4 0.00 1.93 1.91 96 1011.5
20260502213604 13 355 3.2 6.4 0.00 1.93 1.91 96 1011.5
20260502213505 13 355 3.2 6.4 0.00 1.93 1.91 96 1011.5
20260502213303 13 5 4.8 6.4 0.00 1.93 1.91 96 1011.4
20260502213203 13 16 4.8 6.4 0.00 1.93 1.91 96 1011.4
20260502213103 13 347 4.8 6.4 0.00 1.93 1.91 96 1011.3
20260502213006 13 355 4.8 6.4 0.00 1.93 1.91 96 1011.3
20260502212903 13 348 3.2 6.4 0.00 1.93 1.91 96 1011.4
20260502212803 13 349 3.2 6.4 0.00 1.93 1.91 96 1011.4
20260502212703 13 342 3.2 6.4 0.00 1.93 1.91 96 1011.4
20260502212402 13 349 3.2 8.0 0.00 1.93 1.91 96 1011.4
20260502212305 13 350 3.2 14.5 0.00 1.93 1.91 96 1011.3
20260502212203 13 351 3.2 14.5 0.00 1.93 1.91 96 1011.3
20260502211903 13 20 4.8 14.5 0.00 1.93 1.91 96 1011.1
20260502211803 13 360 4.8 14.5 0.00 1.93 1.91 96 1011.1
20260502211703 13 32 4.8 14.5 0.00 1.93 1.91 96 1011.0
20260502211603 13 360 4.8 14.5 0.00 1.93 1.91 96 1011.1
20260502211505 13 20 4.8 14.5 0.00 1.93 1.91 96 1011.1
20260502211403 13 17 4.8 12.9 0.00 1.93 1.91 96 1011.1
20260502211303 13 5 4.8 12.9 0.00 1.93 1.91 96 1011.2
20260502211203 13 355 3.2 12.9 0.00 1.93 1.91 96 1011.2
20260502211103 13 5 3.2 12.9 0.00 1.93 1.91 96 1011.2
20260502211005 13 27 3.2 12.9 0.00 1.93 1.91 96 1011.3
20260502210902 13 344 3.2 12.9 0.00 1.93 1.91 96 1011.2
20260502210802 13 11 4.8 12.9 0.00 1.93 1.91 96 1011.3
20260502210703 13 355 4.8 12.9 0.00 1.93 1.91 96 1011.2
20260502210603 13 5 3.2 12.9 0.00 1.93 1.91 96 1011.2
20260502210505 13 355 3.2 8.0 0.00 1.93 1.91 96 1011.1
20260502210404 13 355 3.2 8.0 0.00 1.93 1.91 96 1011.0
20260502210303 13 355 4.8 8.0 0.00 1.93 1.91 96 1011.0
20260502205904 13 355 4.8 6.4 0.00 1.93 1.91 96 1010.9
20260502205803 13 348 4.8 6.4 0.00 1.93 1.91 96 1010.9
20260502205305 13 355 3.2 6.4 0.00 1.93 1.91 96 1010.9
20260502205204 13 355 3.2 6.4 0.00 1.93 1.91 96 1010.9
20260502205105 13 355 3.2 6.4 0.00 1.93 1.91 96 1010.9
20260502205006 13 355 3.2 6.4 0.00 1.93 1.91 96 1010.9
20260502204905 13 344 1.6 6.4 0.00 1.93 1.91 96 1010.9
20260502204805 13 5 3.2 6.4 0.00 1.93 1.91 96 1010.9
20260502204703 13 360 3.2 6.4 0.00 1.93 1.91 96 1010.9
20260502204603 13 341 3.2 6.4 0.00 1.93 1.91 96 1010.9
20260502204505 13 333 3.2 6.4 0.00 1.93 1.91 96 1010.8
20260502204404 13 332 3.2 6.4 0.00 1.93 1.91 97 1010.7
20260502204303 13 328 3.2 6.4 0.00 1.93 1.91 97 1010.8
20260502204204 13 305 1.6 6.4 0.00 1.93 1.91 97 1010.8
20260502204103 13 304 3.2 6.4 0.00 1.93 1.91 97 1010.8